When you browse on this site, cookies collect data to enhance your experience and personalize the content and advertising you see.
Visit our Privacy Policy to learn more. By continuing to use the site, you agree to this use of cookies and data.
  • In Österreich
  • Länderverzeichnis
  • Für 7 Tage
  • Wassertemperatur
  • Satellitenkarten
  • Wetterkarte
  • News
  • Widgets
  • user-avatar
    Anmelden

    Stündliche Wetter Lezhe

    Heute, 17 Februar, Sonntag

    Zeit Temperatur Niederschläge Wind Luftdruck Luftfeuchtigkeit
    00:00 +4°C° 0 mm 2 m/S 746 mmHg 65%
    01:00 +4°C° 0 mm 2 m/S 746 mmHg 64%
    02:00 +4°C° 0 mm 2 m/S 746 mmHg 63%
    03:00 +4°C° 0 mm 2 m/S 746 mmHg 62%
    04:00 +4°C° 0 mm 2 m/S 745 mmHg 61%
    05:00 +4°C° 0 mm 2 m/S 745 mmHg 60%
    06:00 +4°C° 0 mm 2 m/S 745 mmHg 59%
    07:00 +4°C° 0 mm 2 m/S 745 mmHg 58%
    08:00 +7°C° 0 mm 1 m/S 745 mmHg 51%
    09:00 +10°C° 0 mm 1 m/S 745 mmHg 45%
    10:00 +12°C° 0 mm 1 m/S 745 mmHg 39%
    11:00 +13°C° 0 mm 1 m/S 745 mmHg 38%
    12:00 +14°C° 0 mm 1 m/S 745 mmHg 37%
    13:00 +15°C° 0 mm 2 m/S 745 mmHg 35%
    14:00 +14°C° 0 mm 2 m/S 744 mmHg 40%
    15:00 +14°C° 0 mm 2 m/S 744 mmHg 45%
    16:00 +13°C° 0 mm 2 m/S 744 mmHg 49%
    17:00 +12°C° 0 mm 1 m/S 744 mmHg 54%
    18:00 +10°C° 0 mm 1 m/S 744 mmHg 59%
    19:00 +9°C° 0 mm 1 m/S 744 mmHg 64%
    20:00 +9°C° 0 mm 1 m/S 744 mmHg 64%
    21:00 +8°C° 0 mm 1 m/S 744 mmHg 63%
    22:00 +8°C° 0 mm 1 m/S 744 mmHg 63%
    23:00 +8°C° 0 mm 1 m/S 744 mmHg 62%

    Morgen, 18 Februar, Montag

    Zeit Temperatur Niederschläge Wind Luftdruck Luftfeuchtigkeit
    00:00 +8°C° 0 mm 1 m/S 744 mmHg 60%
    01:00 +7°C° 0 mm 1 m/S 744 mmHg 59%
    02:00 +7°C° 0 mm 1 m/S 744 mmHg 58%
    03:00 +7°C° 0 mm 1 m/S 744 mmHg 57%
    04:00 +7°C° 0 mm 1 m/S 744 mmHg 56%
    05:00 +7°C° 0 mm 1 m/S 744 mmHg 56%
    06:00 +7°C° 0 mm 1 m/S 744 mmHg 55%
    07:00 +7°C° 0 mm 1 m/S 744 mmHg 54%
    08:00 +9°C° 0 mm 1 m/S 744 mmHg 49%
    09:00 +11°C° 0 mm 1 m/S 744 mmHg 44%
    10:00 +12°C° 0 mm 0 m/S 743 mmHg 40%
    11:00 +13°C° 0 mm 1 m/S 743 mmHg 40%
    12:00 +14°C° 0 mm 1 m/S 743 mmHg 40%
    13:00 +15°C° 0 mm 1 m/S 743 mmHg 40%
    14:00 +14°C° 0 mm 1 m/S 742 mmHg 44%
    15:00 +14°C° 0 mm 1 m/S 742 mmHg 48%
    16:00 +13°C° 0 mm 1 m/S 742 mmHg 52%
    17:00 +12°C° 0 mm 1 m/S 742 mmHg 58%
    18:00 +9°C° 0 mm 0 m/S 742 mmHg 64%
    19:00 +8°C° 0 mm 0 m/S 742 mmHg 71%
    20:00 +8°C° 0 mm 0 m/S 743 mmHg 71%
    21:00 +7°C° 0 mm 0 m/S 743 mmHg 71%
    22:00 +8°C° 0 mm 1 m/S 743 mmHg 72%
    23:00 +8°C° 0 mm 1 m/S 743 mmHg 72%

    übermorgen, 19 Februar, Dienstag

    Zeit Temperatur Niederschläge Wind Luftdruck Luftfeuchtigkeit
    00:00 +8°C° 0 mm 1 m/S 743 mmHg 72%
    01:00 +7°C° 0 mm 1 m/S 743 mmHg 72%
    02:00 +7°C° 0 mm 1 m/S 743 mmHg 72%
    03:00 +7°C° 0 mm 1 m/S 742 mmHg 71%
    04:00 +7°C° 0 mm 1 m/S 742 mmHg 71%
    05:00 +7°C° 0 mm 1 m/S 742 mmHg 70%
    06:00 +6°C° 0 mm 1 m/S 742 mmHg 69%
    07:00 +6°C° 0 mm 1 m/S 743 mmHg 69%
    08:00 +8°C° 0 mm 1 m/S 743 mmHg 62%
    09:00 +10°C° 0 mm 1 m/S 743 mmHg 55%
    10:00 +11°C° 0 mm 0 m/S 743 mmHg 48%
    11:00 +13°C° 0 mm 1 m/S 743 mmHg 47%
    12:00 +13°C° 0 mm 1 m/S 742 mmHg 46%
    13:00 +14°C° 0 mm 1 m/S 742 mmHg 45%
    14:00 +13°C° 0 mm 1 m/S 742 mmHg 49%
    15:00 +13°C° 0 mm 1 m/S 742 mmHg 52%
    16:00 +13°C° 0 mm 1 m/S 741 mmHg 55%
    17:00 +11°C° 0 mm 1 m/S 742 mmHg 62%
    18:00 +9°C° 0 mm 0 m/S 742 mmHg 69%
    19:00 +8°C° 0 mm 0 m/S 742 mmHg 76%
    20:00 +7°C° 0 mm 0 m/S 742 mmHg 77%
    21:00 +8°C° 0 mm 1 m/S 743 mmHg 78%
    22:00 +8°C° 0 mm 1 m/S 743 mmHg 78%
    23:00 +7°C° 0 mm 1 m/S 743 mmHg 78%

    20 Februar, Mittwoch

    Zeit Temperatur Niederschläge Wind Luftdruck Luftfeuchtigkeit
    00:00 +7°C° 0 mm 1 m/S 743 mmHg 78%
    01:00 +7°C° 0 mm 1 m/S 743 mmHg 78%
    02:00 +7°C° 0 mm 1 m/S 742 mmHg 77%
    03:00 +6°C° 0 mm 1 m/S 742 mmHg 76%
    04:00 +6°C° 0 mm 1 m/S 742 mmHg 76%
    05:00 +6°C° 0 mm 1 m/S 742 mmHg 74%
    06:00 +6°C° 0 mm 1 m/S 743 mmHg 73%
    07:00 +6°C° 0 mm 1 m/S 743 mmHg 71%
    08:00 +8°C° 0 mm 1 m/S 743 mmHg 65%
    09:00 +10°C° 0 mm 1 m/S 743 mmHg 58%
    10:00 +11°C° 0 mm 0 m/S 743 mmHg 52%
    11:00 +13°C° 0 mm 1 m/S 743 mmHg 52%
    12:00 +13°C° 0 mm 1 m/S 743 mmHg 52%
    13:00 +14°C° 0 mm 2 m/S 743 mmHg 51%
    14:00 +13°C° 0 mm 2 m/S 743 mmHg 55%
    15:00 +13°C° 0 mm 2 m/S 743 mmHg 59%
    16:00 +13°C° 0 mm 2 m/S 742 mmHg 62%
    17:00 +11°C° 0 mm 1 m/S 743 mmHg 70%
    18:00 +10°C° 0 mm 1 m/S 743 mmHg 77%
    19:00 +9°C° 0 mm 1 m/S 743 mmHg 85%
    20:00 +9°C° 0 mm 1 m/S 744 mmHg 82%
    21:00 +8°C° 0 mm 1 m/S 744 mmHg 80%
    22:00 +8°C° 0 mm 1 m/S 744 mmHg 77%
    23:00 +8°C° 0 mm 1 m/S 744 mmHg 74%

    21 Februar, Donnerstag

    Zeit Temperatur Niederschläge Wind Luftdruck Luftfeuchtigkeit
    00:00 +8°C° 0 mm 1 m/S 744 mmHg 70%
    01:00 +7°C° 0 mm 1 m/S 744 mmHg 67%
    02:00 +7°C° 0 mm 1 m/S 744 mmHg 66%
    03:00 +7°C° 0 mm 1 m/S 744 mmHg 64%
    04:00 +7°C° 0 mm 1 m/S 744 mmHg 63%
    05:00 +7°C° 0 mm 1 m/S 744 mmHg 64%
    06:00 +6°C° 0 mm 2 m/S 744 mmHg 65%
    07:00 +6°C° 0 mm 2 m/S 744 mmHg 66%
    08:00 +8°C° 0 mm 2 m/S 744 mmHg 60%
    09:00 +11°C° 0 mm 1 m/S 744 mmHg 55%
    10:00 +13°C° 0 mm 1 m/S 745 mmHg 49%
    11:00 +14°C° 0 mm 1 m/S 744 mmHg 46%
    12:00 +15°C° 0 mm 2 m/S 744 mmHg 43%
    13:00 +16°C° 0 mm 2 m/S 744 mmHg 41%
    14:00 +15°C° 0 mm 2 m/S 743 mmHg 44%
    15:00 +15°C° 0 mm 2 m/S 743 mmHg 47%
    16:00 +13°C° 0 mm 3 m/S 743 mmHg 50%
    17:00 +13°C° 0 mm 2 m/S 743 mmHg 56%
    18:00 +10°C° 0 mm 2 m/S 744 mmHg 63%
    19:00 +10°C° 0 mm 1 m/S 744 mmHg 69%
    20:00 +10°C° 0 mm 1 m/S 744 mmHg 68%
    21:00 +9°C° 0 mm 1 m/S 744 mmHg 68%
    22:00 +9°C° 0 mm 1 m/S 744 mmHg 67%
    23:00 +9°C° 0 mm 1 m/S 744 mmHg 66%

    22 Februar, Freitag

    Zeit Temperatur Niederschläge Wind Luftdruck Luftfeuchtigkeit
    00:00 +8°C° 0 mm 1 m/S 744 mmHg 66%
    01:00 +8°C° 0 mm 1 m/S 744 mmHg 66%
    02:00 +8°C° 0 mm 1 m/S 744 mmHg 65%
    03:00 +8°C° 0 mm 1 m/S 743 mmHg 65%
    04:00 +7°C° 0 mm 1 m/S 743 mmHg 65%
    05:00 +7°C° 0 mm 1 m/S 743 mmHg 64%
    06:00 +7°C° 0 mm 1 m/S 743 mmHg 63%
    07:00 +7°C° 0 mm 1 m/S 743 mmHg 63%
    08:00 +9°C° 0 mm 1 m/S 743 mmHg 56%
    09:00 +11°C° 0 mm 1 m/S 743 mmHg 49%
    10:00 +12°C° 0 mm 0 m/S 742 mmHg 43%
    11:00 +14°C° 0 mm 1 m/S 742 mmHg 43%
    12:00 +14°C° 0 mm 1 m/S 741 mmHg 42%
    13:00 +15°C° 0 mm 2 m/S 741 mmHg 42%
    14:00 +14°C° 0 mm 2 m/S 740 mmHg 46%
    15:00 +14°C° 0 mm 2 m/S 740 mmHg 50%
    16:00 +13°C° 0 mm 2 m/S 740 mmHg 54%
    17:00 +13°C° 0 mm 2 m/S 740 mmHg 60%
    18:00 +12°C° 0 mm 1 m/S 740 mmHg 66%
    19:00 +11°C° 0 mm 1 m/S 739 mmHg 72%
    20:00 +10°C° 0 mm 1 m/S 739 mmHg 72%
    21:00 +10°C° 0 mm 1 m/S 739 mmHg 72%
    22:00 +9°C° 0 mm 1 m/S 739 mmHg 72%
    23:00 +9°C° 0 mm 1 m/S 738 mmHg 71%
    Mehr zeigen